Natchez, MS

2:48 AM CST on December 06, 2019 (GMT -0600)
Hardy-Anders-Adams County

Weather History for KHEZ - August, 2019

Change the Weather History Date:

Saturday, August 31, 2019

  Actual Average Record
Temperature  
Mean Temperature 80 °F -  
Max Temperature 90 °F 90 °F 103 °F (1951)
Min Temperature 70 °F 69 °F 50 °F (1946)
Cooling Degree Days 15    
Growing Degree Days 30 (Base 50)    
Moisture  
Dew Point 69 °F    
Average Humidity 72    
Maximum Humidity 97    
Minimum Humidity 48    
Precipitation  
Precipitation 0.00 in - - ()
Sea Level Pressure  
Sea Level Pressure 30.03 in    
Wind  
Wind Speed 3 mph (ENE)    
Max Wind Speed 9 mph    
Max Gust Speed -    
Visibility 10 miles    
Events      
Averages and records for this station are not official NWS values.
T = Trace of Precipitation, MM = Missing Value Source: NWS Daily Summary

Daily Weather History Graph

Daily Weather History Graph

Search for Another Location

Airport or City:

Astronomy

Aug. 31, 2019 Rise Set
Actual Time 6:40 AM CDT 7:30 PM CDT
Civil Twilight 6:15 AM CDT 7:55 PM CDT
Nautical Twilight 5:45 AM CDT 8:24 PM CDT
Astronomical Twilight 5:15 AM CDT 8:54 PM CDT
Moon 7:54 AM CDT (8/31) 8:48 PM CDT (8/31)
Length of Visible Light 13h 39m
Length of Day
12h 50m
New Moon, 3% of the Moon is Illuminated
Aug 31
New Moon
Sep 5
First Quarter
Sep 13
Full
Sep 21
Last Quarter
Sep 28
New

Hourly Weather History & Observations

Time (CDT) Temp. Heat Index Dew Point Humidity Pressure Visibility Wind Dir Wind Speed Gust Speed Precip Events Conditions
12:56 AM 77.0 °F - 71.1 °F 82% 30.04 in 10.0 mi ESE 4.6 mph - N/A   Clear
1:56 AM 75.9 °F - 70.0 °F 82% 30.03 in 10.0 mi ESE 4.6 mph - N/A   Clear
2:56 AM 72.0 °F - 70.0 °F 93% 30.03 in 10.0 mi Calm Calm - N/A   Clear
3:56 AM 72.0 °F - 70.0 °F 93% 30.03 in 10.0 mi Calm Calm - N/A   Clear
4:56 AM 70.0 °F - 69.1 °F 97% 30.04 in 10.0 mi Calm Calm - N/A   Mostly Cloudy
5:56 AM 71.1 °F - 69.1 °F 93% 30.05 in 10.0 mi Calm Calm - N/A   Mostly Cloudy
6:56 AM 70.0 °F - 68.0 °F 93% 30.05 in 10.0 mi Calm Calm - N/A   Clear
8:56 AM 81.0 °F 83.3 °F 66.9 °F 62% 30.06 in 10.0 mi SE 3.5 mph - N/A   Scattered Clouds
9:56 AM 84.0 °F 86.3 °F 66.0 °F 55% 30.07 in 10.0 mi SSE 5.8 mph - N/A   Partly Cloudy
10:56 AM 87.1 °F 89.9 °F 66.9 °F 51% 30.06 in 10.0 mi Calm Calm - N/A   Partly Cloudy
11:56 AM 88.0 °F 92.1 °F 69.1 °F 53% 30.06 in 10.0 mi Variable 3.5 mph - N/A   Clear
12:56 PM 87.1 °F 91.3 °F 69.1 °F 55% 30.05 in 10.0 mi North 6.9 mph - N/A   Mostly Cloudy
1:56 PM 89.1 °F 95.0 °F 71.1 °F 55% 30.04 in 10.0 mi NE 4.6 mph - N/A   Scattered Clouds
2:31 PM 89.6 °F 94.7 °F 69.8 °F 52% 30.04 in 10.0 mi ENE 3.5 mph - N/A   Scattered Clouds
2:56 PM 90.0 °F 96.4 °F 71.1 °F 54% 30.03 in 10.0 mi North 8.1 mph - N/A   Partly Cloudy
3:56 PM 90.0 °F 94.5 °F 69.1 °F 50% 30.02 in 10.0 mi NNW 8.1 mph - N/A   Partly Cloudy
4:56 PM 90.0 °F 93.6 °F 68.0 °F 48% 30.01 in 10.0 mi NNE 9.2 mph - N/A   Clear
5:56 PM 89.1 °F 92.9 °F 68.0 °F 50% 30.00 in 7.0 mi NE 6.9 mph - N/A   Clear
6:56 PM 86.0 °F 90.7 °F 70.0 °F 59% 30.00 in 10.0 mi ENE 4.6 mph - N/A   Clear
7:56 PM 78.1 °F - 72.0 °F 81% 30.01 in 10.0 mi Calm Calm - N/A   Clear
8:56 PM 78.1 °F - 71.1 °F 79% 30.01 in 10.0 mi East 3.5 mph - N/A   Clear
9:56 PM 73.0 °F - 71.1 °F 93% 30.02 in 10.0 mi Calm Calm - N/A   Clear
10:56 PM 72.0 °F - 70.0 °F 93% 30.03 in 10.0 mi Calm Calm - N/A   Clear
11:56 PM 71.1 °F - 70.0 °F 96% 30.03 in 10.0 mi Calm Calm - N/A   Clear